Regional Weather Roundup
Issued by NWS

Home | Current Version | Previous Version | Text Only | Print | Product List | Glossary On
Versions: 1 2 3 4 5 6 7 8 9 10 11 12 13 14 15 16 17 18 19 20 21 22 23 24 25 26 27 28 29 30 31 32 33 34 35 36 37 38 39 40 41 42 43 44 45 46 47 48 49 50
000
ASUS43 KTOP 010959
RWRKS

WEATHER ROUNDUP FOR KANSAS
NATIONAL WEATHER SERVICE GOODLAND KS
500 AM CDT SAT AUG 01 2015

NOTE:  "FAIR" INDICATES FEW OR NO CLOUDS BELOW 12,000 FEET WITH NO
SIGNIFICANT WEATHER AND/OR OBSTRUCTIONS TO VISIBILITY.

KSZ001>006-013>018-027>032-041>047-011100-
NORTHWEST KANSAS

CITY           SKY/WX    TMP DP  RH WIND       PRES   REMARKS
GOODLAND       CLEAR     67  61  81 SW13      30.17S
HAYS           CLEAR     68  61  77 S6        30.11S
HILL CITY      PTCLDY    72  67  84 W5        30.11F
RUSSELL        CLEAR     69  68  96 SW7       30.09S
$$

KSZ061>065-074>080-084>089-011100-
SOUTHWEST KANSAS

CITY           SKY/WX    TMP DP  RH WIND       PRES   REMARKS
DODGE CITY     PTCLDY    67  65  93 SW5       30.14F
ELKHART          N/A     66  63  90 S6          N/A
GARDEN CITY    PTCLDY    67  66  97 SW6       30.14F FOG
GREAT BEND     CLEAR     70  64  83 SW3       30.11S
LIBERAL        MOCLDY    70  64  83 SE3       30.13F
$$

KSZ066>073-081>083-090>101-011100-
SOUTHEAST KANSAS

CITY           SKY/WX    TMP DP  RH WIND       PRES   REMARKS
CHANUTE        CLEAR     67  67 100 SE3       30.08S FOG
COFFEYVILLE    CLEAR     66  65  96 CALM      30.07S
HUTCHINSON     CLEAR     71  68  90 CALM      30.09S
MEDICINE LODGE   N/A     70  69  97 CALM      30.08F
NEWTON         CLEAR     72  66  83 SW5       30.11F
PARSONS        CLEAR     65  65 100 CALM      30.09S FOG
WICHITA INTL   PTCLDY    72  70  93 S3        30.08F
WICHITA JABRA  CLEAR     72  70  93 S5        30.09S
WINFIELD       CLEAR     72  71  97 CALM      30.09F
$$

KSZ007>012-019>026-033>040-048>060-102>105-011100-
NORTHEAST KANSAS

CITY           SKY/WX    TMP DP  RH WIND       PRES   REMARKS
CONCORDIA      PTCLDY    69  66  90 CALM      30.07F
EMPORIA        CLEAR     70  69  97 SW5       30.07F FOG
LAWRENCE       CLEAR     69  67  93 SE3       30.05S
MANHATTAN      CLEAR     70  68  93 CALM      30.05F
OLATHE IND     CLEAR     73  69  87 SW6       30.07S
OLATHE EXE     CLEAR     70  68  93 SW5       30.06S
SALINA         CLEAR     70  67  90 S5        30.08R
TOPEKA BILLARD CLEAR     71  68  90 CALM      30.05S
TOPEKA FORBES  CLEAR     73  68  84 S7        30.05S
$$


USA.gov is the U.S. government's official web portal to all federal, state and local government web resources and services.